SAS22P EKCH-LKPR

Flight info

Callsign SAS22P
Flight time 1h 5m
Altitude 29000
Route SALLO M44 KOGIM M725 MASOR DCT LUROS M725 HDO DCT GOLOP
Aircraft A21N/M-SDE2E3FGHIRWXY/LB1

Departure

Time 2026-05-04 08:22
Airport Copenhagen Kastrup Airport (EKCH)

Arrival

Time 2026-05-04 09:27
Airport Václav Havel Airport Prague (LKPR)
Time Latitude Longitude Altitude Speed Heading
2026-05-04 08:02 55.62699 12.64594 -4 ft 0 kts 283°
2026-05-04 08:10 55.62695 12.64650 23 ft 2 kts 260°
2026-05-04 08:11 55.62699 12.64677 25 ft 2 kts 235°
2026-05-04 08:11 55.62695 12.64685 25 ft 2 kts 193°
2026-05-04 08:11 55.62679 12.64679 25 ft 2 kts 193°
2026-05-04 08:12 55.62664 12.64672 24 ft 2 kts 193°
2026-05-04 08:12 55.62648 12.64666 23 ft 2 kts 191°
2026-05-04 08:12 55.62639 12.64663 25 ft 0 kts 191°
2026-05-04 08:17 55.62613 12.64654 24 ft 7 kts 191°
2026-05-04 08:17 55.62555 12.64649 26 ft 10 kts 179°
2026-05-04 08:17 55.62489 12.64659 28 ft 9 kts 168°
2026-05-04 08:17 55.62420 12.64677 26 ft 11 kts 176°
2026-05-04 08:19 55.61885 12.64083 25 ft 12 kts 202°
2026-05-04 08:19 55.61799 12.64072 27 ft 13 kts 177°
2026-05-04 08:20 55.61702 12.64082 23 ft 14 kts 176°
2026-05-04 08:20 55.61631 12.64069 28 ft 8 kts 205°
2026-05-04 08:20 55.61619 12.64054 25 ft 0 kts 220°
2026-05-04 08:21 55.61614 12.64047 24 ft 5 kts 220°
2026-05-04 08:21 55.61498 12.63868 21 ft 50 kts 221°
2026-05-04 08:21 55.61081 12.63222 26 ft 110 kts 220°
2026-05-04 08:21 55.60354 12.62095 86 ft 157 kts 222°
2026-05-04 08:22 55.59518 12.60842 645 ft 159 kts 225°
2026-05-04 08:22 55.58664 12.59582 1394 ft 159 kts 224°
2026-05-04 08:24 55.48837 12.51457 5489 ft 262 kts 204°
2026-05-04 08:24 55.47103 12.50394 6323 ft 266 kts 204°
2026-05-04 08:24 55.45353 12.49392 7089 ft 271 kts 197°
2026-05-04 08:24 55.43449 12.49513 7882 ft 285 kts 165°
2026-05-04 08:25 55.41770 12.51478 8631 ft 300 kts 133°
2026-05-04 08:25 55.40832 12.54798 9366 ft 311 kts 105°
2026-05-04 08:25 55.40414 12.58569 10070 ft 318 kts 101°
2026-05-04 08:25 55.39985 12.62500 10412 ft 337 kts 104°
2026-05-04 08:26 55.39429 12.66630 10700 ft 356 kts 108°
2026-05-04 08:27 55.26707 12.89083 14834 ft 388 kts 146°
2026-05-04 08:28 55.24604 12.92085 15479 ft 391 kts 146°
2026-05-04 08:28 55.22483 12.95108 16110 ft 395 kts 147°
2026-05-04 08:28 55.20348 12.98149 16740 ft 398 kts 147°
2026-05-04 08:28 55.18217 13.01180 17354 ft 401 kts 147°
2026-05-04 08:29 55.16040 13.04272 17971 ft 405 kts 147°
2026-05-04 08:29 55.13843 13.07389 18521 ft 408 kts 147°
2026-05-04 08:29 55.11631 13.10522 19055 ft 410 kts 147°
2026-05-04 08:31 54.96604 13.31688 22519 ft 425 kts 148°
2026-05-04 08:33 54.77789 13.42509 25369 ft 415 kts 179°
2026-05-04 08:33 54.74909 13.43202 25683 ft 419 kts 179°
2026-05-04 08:35 54.54288 13.48619 27970 ft 437 kts 179°
2026-05-04 08:35 54.51285 13.49420 28369 ft 436 kts 179°
2026-05-04 08:35 54.48284 13.50206 28663 ft 438 kts 180°
2026-05-04 08:35 54.45262 13.50975 28878 ft 441 kts 180°
2026-05-04 08:37 54.26991 13.55589 29057 ft 455 kts 179°
2026-05-04 08:37 54.23839 13.56411 29231 ft 458 kts 179°
2026-05-04 08:37 54.20709 13.57244 29837 ft 453 kts 179°
2026-05-04 08:38 54.17613 13.58071 30381 ft 447 kts 179°
2026-05-04 08:38 54.14567 13.58880 31017 ft 438 kts 179°
2026-05-04 08:38 54.11582 13.59669 31660 ft 430 kts 179°
2026-05-04 08:40 53.91587 13.64811 34163 ft 410 kts 178°
2026-05-04 08:40 53.88767 13.65562 34301 ft 411 kts 177°
2026-05-04 08:40 53.85940 13.66330 34437 ft 412 kts 177°
2026-05-04 08:41 53.83103 13.67107 34590 ft 413 kts 177°
2026-05-04 08:41 53.80301 13.67875 34737 ft 413 kts 177°
2026-05-04 08:41 53.77426 13.68663 34875 ft 414 kts 177°
2026-05-04 08:42 53.71752 13.70206 34947 ft 416 kts 177°
2026-05-04 08:42 53.66030 13.71757 34947 ft 417 kts 177°
2026-05-04 08:43 53.60303 13.73304 34951 ft 417 kts 177°
2026-05-04 08:43 53.54566 13.74848 34950 ft 417 kts 177°
2026-05-04 08:44 53.48782 13.76395 34950 ft 425 kts 177°
2026-05-04 08:46 53.25677 13.82561 34957 ft 419 kts 177°
2026-05-04 08:46 53.19911 13.84086 34957 ft 419 kts 177°
2026-05-04 08:47 53.14144 13.85607 34950 ft 421 kts 177°
2026-05-04 08:47 53.08348 13.87132 34952 ft 422 kts 177°
2026-05-04 08:48 53.02574 13.88653 34959 ft 415 kts 177°
2026-05-04 08:48 52.96904 13.90144 34963 ft 412 kts 177°
2026-05-04 08:49 52.91244 13.91618 34957 ft 412 kts 177°
2026-05-04 08:50 52.71436 13.96755 34963 ft 412 kts 177°
2026-05-04 08:51 52.65764 13.98220 34963 ft 412 kts 177°
2026-05-04 08:51 52.60092 13.99680 34965 ft 413 kts 177°
2026-05-04 08:52 52.54424 14.01135 34966 ft 412 kts 177°
2026-05-04 08:52 52.48752 14.02587 34970 ft 412 kts 177°
2026-05-04 08:54 52.25965 14.08383 34979 ft 416 kts 177°
2026-05-04 08:55 52.20249 14.09828 34986 ft 416 kts 177°
2026-05-04 08:55 52.14536 14.11269 34978 ft 416 kts 176°
2026-05-04 08:57 51.94510 14.16290 34319 ft 415 kts 177°
2026-05-04 09:01 51.53077 14.24897 30725 ft 432 kts 177°
2026-05-04 09:01 51.50093 14.25497 30478 ft 433 kts 177°
2026-05-04 09:01 51.47095 14.26100 30237 ft 434 kts 177°
2026-05-04 09:01 51.44090 14.26703 29981 ft 435 kts 177°
2026-05-04 09:02 51.41084 14.27306 29681 ft 436 kts 177°
2026-05-04 09:02 51.38071 14.27909 29397 ft 436 kts 177°
2026-05-04 09:02 51.35061 14.28512 29121 ft 437 kts 176°
2026-05-04 09:02 51.32046 14.29115 28669 ft 436 kts 176°
2026-05-04 09:03 51.29044 14.29715 28146 ft 434 kts 176°
2026-05-04 09:03 51.26059 14.30312 27609 ft 431 kts 176°
2026-05-04 09:03 51.23100 14.30903 27088 ft 427 kts 176°
2026-05-04 09:03 51.20205 14.31480 26582 ft 423 kts 176°
2026-05-04 09:04 51.17309 14.32056 26075 ft 419 kts 176°
2026-05-04 09:04 51.14419 14.32629 25571 ft 415 kts 176°
2026-05-04 09:04 51.11566 14.33194 25089 ft 411 kts 176°
2026-05-04 09:04 51.08740 14.33753 24610 ft 408 kts 175°
2026-05-04 09:05 51.05932 14.34306 24131 ft 405 kts 175°
2026-05-04 09:05 51.03139 14.34855 23666 ft 403 kts 175°
2026-05-04 09:05 51.00368 14.35399 23141 ft 400 kts 175°
2026-05-04 09:05 50.97621 14.35939 22594 ft 396 kts 175°
2026-05-04 09:06 50.94898 14.36475 22065 ft 392 kts 175°
2026-05-04 09:07 50.76746 14.42864 18597 ft 371 kts 170°
2026-05-04 09:08 50.74239 14.43792 18104 ft 368 kts 170°
2026-05-04 09:08 50.71757 14.44711 17569 ft 365 kts 170°
2026-05-04 09:08 50.69294 14.45622 17048 ft 362 kts 170°
2026-05-04 09:08 50.66850 14.46524 16526 ft 359 kts 169°
2026-05-04 09:09 50.64429 14.47417 16022 ft 356 kts 169°
2026-05-04 09:09 50.62028 14.48285 15519 ft 352 kts 172°
2026-05-04 09:09 50.59617 14.48634 15039 ft 345 kts 185°
2026-05-04 09:09 50.57299 14.47895 14548 ft 338 kts 202°
2026-05-04 09:10 50.55231 14.46205 14077 ft 334 kts 212°
2026-05-04 09:10 50.53282 14.44220 13581 ft 333 kts 214°
2026-05-04 09:10 50.51382 14.42227 13059 ft 331 kts 214°
2026-05-04 09:10 50.49471 14.40230 12520 ft 329 kts 214°
2026-05-04 09:11 50.47568 14.38253 11973 ft 326 kts 214°
2026-05-04 09:11 50.45678 14.36307 11473 ft 323 kts 212°
2026-05-04 09:11 50.43675 14.34743 10974 ft 322 kts 200°
2026-05-04 09:11 50.41467 14.34163 10489 ft 324 kts 182°
2026-05-04 09:12 50.39223 14.34414 10022 ft 324 kts 176°
2026-05-04 09:12 50.36993 14.34868 9494 ft 322 kts 175°
2026-05-04 09:14 50.22775 14.37807 7007 ft 244 kts 176°
2026-05-04 09:14 50.21100 14.38139 7023 ft 242 kts 176°
2026-05-04 09:14 50.19427 14.38470 7042 ft 242 kts 176°
2026-05-04 09:14 50.17762 14.38800 7036 ft 241 kts 176°
2026-05-04 09:15 50.16093 14.39144 7022 ft 243 kts 173°
2026-05-04 09:15 50.14463 14.39894 7017 ft 247 kts 157°
2026-05-04 09:15 50.13060 14.41458 6963 ft 251 kts 137°
2026-05-04 09:15 50.11920 14.43539 6524 ft 254 kts 130°
2026-05-04 09:17 50.03699 14.60618 4965 ft 244 kts 128°
2026-05-04 09:18 50.02672 14.62720 4967 ft 244 kts 128°
2026-05-04 09:18 50.01647 14.64818 4965 ft 244 kts 128°
2026-05-04 09:18 50.00621 14.66921 4960 ft 244 kts 128°
2026-05-04 09:18 49.99600 14.69022 4963 ft 243 kts 128°
2026-05-04 09:19 49.98573 14.71123 4965 ft 244 kts 130°
2026-05-04 09:19 49.97266 14.72751 4878 ft 243 kts 156°
2026-05-04 09:19 49.95614 14.73219 4356 ft 245 kts 187°
2026-05-04 09:19 49.94057 14.72301 4040 ft 240 kts 219°
2026-05-04 09:20 49.93055 14.70300 3963 ft 236 kts 250°
2026-05-04 09:20 49.92793 14.67814 3969 ft 234 kts 270°
2026-05-04 09:20 49.92860 14.65323 3970 ft 234 kts 274°
2026-05-04 09:20 49.93002 14.62810 3966 ft 234 kts 281°
2026-05-04 09:21 49.93515 14.60435 3961 ft 233 kts 297°
2026-05-04 09:21 49.94386 14.58323 3971 ft 233 kts 307°
2026-05-04 09:21 49.95367 14.56318 3965 ft 233 kts 307°
2026-05-04 09:21 49.96030 14.54969 3976 ft 232 kts 307°
2026-05-04 09:22 49.97314 14.52364 3963 ft 220 kts 308°
2026-05-04 09:22 49.98201 14.50557 3975 ft 203 kts 307°
2026-05-04 09:22 49.98774 14.49383 3974 ft 201 kts 307°
2026-05-04 09:22 49.99614 14.47650 3970 ft 200 kts 307°
2026-05-04 09:23 50.00409 14.46006 3964 ft 179 kts 307°
2026-05-04 09:23 50.01126 14.44518 3941 ft 166 kts 308°
2026-05-04 09:23 50.01815 14.43095 3654 ft 168 kts 308°
2026-05-04 09:23 50.02508 14.41663 3387 ft 169 kts 309°
2026-05-04 09:25 50.06969 14.32453 1963 ft 140 kts 308°
2026-05-04 09:25 50.07557 14.31239 1774 ft 140 kts 308°
2026-05-04 09:26 50.08145 14.30043 1585 ft 139 kts 309°
2026-05-04 09:26 50.08717 14.28842 1423 ft 138 kts 308°
2026-05-04 09:26 50.09295 14.27660 1261 ft 134 kts 305°
2026-05-04 09:26 50.09807 14.26605 1210 ft 107 kts 308°
2026-05-04 09:27 50.10094 14.26004 1190 ft 26 kts 307°
2026-05-04 09:27 50.10139 14.25908 1189 ft 23 kts 306°
2026-05-04 09:27 50.10259 14.25715 1188 ft 19 kts 334°
2026-05-04 09:27 50.10380 14.25660 1187 ft 17 kts 355°
2026-05-04 09:28 50.10473 14.25684 1187 ft 11 kts 48°
2026-05-04 09:28 50.10495 14.25799 1188 ft 11 kts 78°
2026-05-04 09:28 50.10509 14.25909 1190 ft 11 kts 78°
2026-05-04 09:28 50.10526 14.26049 1192 ft 16 kts 78°
2026-05-04 09:29 50.10540 14.26186 1191 ft 10 kts 92°
2026-05-04 09:29 50.10525 14.26268 1190 ft 6 kts 111°
2026-05-04 09:29 50.10520 14.26309 1190 ft 2 kts 66°
2026-05-04 09:29 50.10544 14.26336 1189 ft 4 kts 25°
2026-05-04 09:30 50.10560 14.26346 1189 ft 2 kts 34°
2026-05-04 09:30 50.10563 14.26349 1189 ft 0 kts 33°